{"data":{"norad_id":69131,"epoch":"2026-09-18T23:51:58.133376Z","epoch_age_seconds":153228,"freshness":"FRESH","line1":"1 69131U 26110H   26261.99442284  .00012245  00000+0  38092-3 0  9997","line2":"2 69131  97.2850  97.0488 0002467 103.9380 256.2138 15.33448527 19988","mean_motion":15.33448527,"eccentricity":0.0002467,"inclination_deg":97.285,"raan_deg":97.0488,"arg_perigee_deg":103.938,"mean_anomaly_deg":256.2138,"bstar":0.00038092,"rev_number":1998,"period_min":93.905988668376,"perigee_km":463.84434731749,"apogee_km":467.22101393791,"semimajor_km":6843.6696806277,"source":"CELESTRAK","updated_at":"2026-09-20T09:00:44.085588Z"}}